Location: Huisseau
(47.5933°N, 1.4533°E)
Time: 17:41:23
(UTC+00:00)

CENTAUR R/B - Pass Details

Date: 20 November 2025
Orbit: 633 x 1547 km, 63.4° (Epoch: 06 December)

Event Time Altitude Azimuth Distance (km) Brightness Sun altitude
Exits shadow 01:30:08 20° 58° (ENE) 2,795 5.1 -54.3°
Drops below altitude 10° 01:33:15 10° 74° (ENE) 3,560 5.8 -53.9°
Sets 01:37:01 0° 85° (E) 4,627 6.5 -53.4°
